Flag for Canada Weather past 2 weeks in Cornwall, Ontario, Canada

Now
17 °F

Cold.


Feels Like: 3 °F
Forecast: -3 / 28 °F
Wind: 13 mph from Northwest

Location: St Anicet

Current Time: Jan 25, 2015 at 5:35:25 AM

Latest Report: Jan 25, 2015 at 5:00 AM


Visibility: N/A

Pressure: 29.57 "Hg

Humidity: 76%

Dew point: 10 °F

Location of CornwallLocation

Historic Weather in Cornwall — Graph

°F

Cornwall temperature yesterday

Maximum temperature yesterday: 33 °F (at 3:00 PM)
Minimum temperature yesterday: 27 °F (at 5:00 AM)
Average temperature yesterday: 29 °F

Past Weeks' High & Low Weather Summary

 TemperatureHumidityPressure
High45 °F (Jan 18, 2:00 PM)100% (Jan 12, 3:00 PM)30.87 "Hg (Jan 12, 3:00 PM)
Low-25 °F (Jan 14, 4:00 AM)47% (Jan 11, 9:00 PM)29.33 "Hg (Jan 25, 12:00 AM)
Average12 °F76%30.12 "Hg
* Reported Jan 10 4:00 AM — Jan 25 4:00 AM, Cornwall, Weather by CustomWeather, © 2014

Note: Actual official high and low records may vary slightly from our data, if they occured in-between our weather recording intervals... More about our weather records

Advertising

Cornwall weather history for previous 24 hours

 ConditionsComfort  
Time TempWeatherWind HumidityBarometerVisibility
4:00 AM
Jan 25
20 °FCold.14 mph86%29.48 "HgN/A
3:00 AM25 °FChilly.10 mph90%29.42 "HgN/A
2:00 AM29 °FChilly.9 mph96%29.35 "HgN/A
1:00 AM29 °FChilly.10 mph96%29.33 "HgN/A
12:00 AM29 °FChilly.13 mph95%29.33 "HgN/A
11:00 PM
Jan 24
29 °FChilly.13 mph91%29.34 "HgN/A
10:00 PM29 °FChilly.10 mph92%29.34 "HgN/A
9:00 PM28 °FChilly.9 mph96%29.35 "HgN/A
8:00 PM28 °FChilly.10 mph96%29.38 "HgN/A
7:00 PM28 °FChilly.10 mph96%29.38 "HgN/A
6:00 PM29 °FChilly.13 mph85%29.38 "HgN/A
5:00 PM30 °FChilly.10 mph82%29.38 "HgN/A
4:00 PM31 °FChilly.9 mph81%29.39 "HgN/A
3:00 PM33 °FChilly.8 mph72%29.41 "HgN/A
2:00 PM31 °FChilly.9 mph75%29.44 "HgN/A
1:00 PM32 °FChilly.12 mph78%29.47 "HgN/A
12:00 PM31 °FChilly.10 mph73%29.50 "HgN/A
11:00 AM30 °FChilly.10 mph75%29.55 "HgN/A
10:00 AM30 °FChilly.8 mph75%29.58 "HgN/A
9:00 AM29 °FChilly.8 mph78%29.60 "HgN/A
8:00 AM29 °FChilly.8 mph79%29.62 "HgN/A
7:00 AM28 °FChilly.7 mph81%29.65 "HgN/A
6:00 AM28 °FChilly.12 mph81%29.67 "HgN/A
5:00 AM27 °FChilly.12 mph80%29.67 "HgN/A
Weather by CustomWeather, © 2014

See weather overviewHow to use our weather pages